User: anonymous   Login
Location: Maccacari
(45.1333°N, 11.1333°E)
Time: 03:28:11
(UTC+00:00)
Language:

SL-16 R/B - Orbit

View from above orbital plane
View from above orbital plane
View from above satellite
View from above satellite

Ground track
Ground track

The orbit data is extracted from the following two-line orbital elements,

1 28353U 04021B   20329.41202607 -.00000231  00000-0 -96298-4 0  9992
2 28353  70.9998 323.8454 0002571  94.8595 265.2820 14.14234401849762
Epoch (UTC): 24 November 2020 09:53:19
Eccentricity: 0.0002571
inclination: 70.9998°
perigee height: 843 km
apogee height: 847 km
right ascension of ascending node: 323.8454°
argument of perigee: 94.8595°
revolutions per day: 14.14234401
mean anomaly at epoch: 265.2820°
orbit number at epoch: 84976

The dashed part of the orbit path shows where the satellite is in the earth's shadow,  

DLR